Location: *
(40.7190°N, 4.2480°W)
Time: 02:42:18
(UTC+00:00)

ATLAS CENTAUR R/B - Pass Details

Date: 18 February 2020
Orbit: 466 x 681 km, 64.7° (Epoch: 05 April)

Event Time Altitude Azimuth Distance (km) Brightness Sun altitude
Exits shadow 05:22:29 19° 337° (NNW) 1,515 3.3 -20.6°
Drops below altitude 10° 05:24:39 10° 4° (N) 1,982 4.2 -20.2°
Sets 05:27:21 0° 21° (NNE) 2,847 5.3 -19.7°
